Regional Weather Roundup
Issued by NWS Newport/Morehead, NC

Current Version | Previous Version | Graphics & Text | Print | Product List | Glossary Off
Versions: 1 2 3 4 5 6 7 8 9 10 11 12 13 14 15 16 17 18 19 20 21 22 23 24 25 26 27 28 29 30 31 32 33 34 35 36 37 38 39 40 41 42 43 44 45 46 47 48 49 50
466 ASUS42 KMHX 071124 RWRMHX WEATHER ROUNDUP FOR EASTERN NORTH CAROLINA NATIONAL WEATHER SERVICE NEWPORT/MOREHEAD CITY NC 600 AM EST WED DEC 07 2016 NOTE: "FAIR" INDICATES FEW OR NO CLOUDS BELOW 12,000 FEET WITH NO SIGNIFICANT WEATHER AND/OR OBSTRUCTIONS TO VISIBILITY NCZ015>017-031-032-045>047-102-103-071200- NORTH COAST CITY SKY/WX TMP DP RH WIND PRES REMARKS EDENTON CLOUDY 46 44 91 NW9 29.95R ELIZABETH CITY CLOUDY 46 45 96 NW9 29.93R KITTY HAWK CLOUDY 47 47 100 NW7G17 29.89R MANTEO CLOUDY 47 46 97 N15G23 29.91R $$ NCZ045>047-081-094-103-104-071200- CENTRAL COAST CITY SKY/WX TMP DP RH WIND PRES REMARKS FRISCO CLOUDY 48 45 89 NW13G21 29.89R $$ NCZ095-097-098-100-101-071200- SOUTHERN COAST CITY SKY/WX TMP DP RH WIND PRES REMARKS BEAUFORT CLOUDY 47 44 90 NW13G23 29.93R CEDAR ISLAND NOT AVBL JACKSONVILLE NOT AVBL PINEY ISLAND CLOUDY N/A N/A N/A NW12G22 29.92R WILMINGTON CLOUDY 44 44 100 NW9 29.97R $$ NCZ011>013-027>030-043-044-078>080-089-090>093-098-071200- COASTAL PLAIN CITY SKY/WX TMP DP RH WIND PRES REMARKS AHOSKIE CLOUDY 43 42 97 NW3 29.98R CLINTON CLOUDY 43 42 98 NW6 30.01R ELIZABETHTOWN PTCLDY 43 43 99 CALM 30.00R GOLDSBORO CLOUDY 45 45 99 W7 29.97R GREENVILLE CLOUDY 45 43 93 NW7 29.99R HAVELOCK CLOUDY 46 43 89 NW12 29.95R KENANSVILLE CLOUDY 45 43 93 NW6 29.99R KINSTON N/A 45 43 93 NW6 29.99R NEW BERN CLOUDY 45 43 93 NW10 29.97R RICHLANDS CLOUDY 45 43 93 NW6 29.99R ROCKY MOUNT PTCLDY 43 42 97 W5 29.99R WASHINGTON CLOUDY 45 43 93 NW6 29.97R WHITEVILLE CLOUDY 46 44 93 CALM 30.00R $$ AMZ130-135-150-152-154-156-158-170-250-252-270-ANZ085-086-088-633-658-670-071200- MARINE OBSERVATIONS STATION/POSITION TIME TEMP WIND PRES WAVE SWELL AIR SEA DIR/SP/G HT/PER HT/PER (UTC) (F) (DEG/KT/KT) (MB) (FT/S) (FT/S) CHESAPEAKE LIGHT NOT AVBL 64 E VA BEACH 1050 54 59 320/ 27/ 31 1009.5 10/ 8 DUCK 1100 48 54 320/ 17/ 22 1011.9 2 E DUCK NOT AVBL OREGON INLET 1100 48 56 310/ 16/ 19 1012.0 13E OREGON INLT NOT AVBL HATTERAS CG 1100 48 61 320/ 21/ 24 1012.2 DIAMOND BUOY 1050 54 74 330/ 23/ 29 1011.6 7/ 8 3/11 CAPE LOOKOUT 1100 47 320/ 14/ 18 1013.0 BEAUFORT LAB 1100 46 56 330/ 10/ 18 1012.5 30 SE NEW RVR IN 1108 48 70 330/ 16/ 21 1014.1 30 SE NEW RVR IN NOT AVBL 27 SE WRIGHTSVLE 1108 52 67 320/ 16/ 23 1014.2 5 SE WRIGHTSVLE 1108 45 61 320/ 16/ 23 1014.4 225 S CAPE HAT 1050 72 74 310/ 16/ 19 1012.3 10/ 9 7/ 9 41 SE CHARLESTON 1050 58 74 340/ 12/ 16 1014.8 3/ 8 2/ 8 $$

USA.gov is the U.S. government's official web portal to all federal, state and local government web resources and services.